SCP
0 0 0 0 0 0 0 0 0 0 0 0 0 0 0 0 0 0 0 0 0 0 0 0 0 0 0 0 0 0 0 0 0 0 0 0 0 0 0 0 0 0 0 0 0 0 0 0 0
0 0 0 0 0 0 0 0 0 0 0 0 0 0 0 0 0 0 0 0 0 0 0 0 0 0 0 0 0 0 0 0 0 0 0 0 0 0 0 0 0 0 0 0 0 0 0 0 0
0 0 0 0 0 0 0 0 0 0 0 0 0 0 0 0 0 0 0 0 0 0 0 0 0 0 0 0 0 0 0 0 0 0 0 0 0 0 0 0 0 0 0 0 0 0 0 0 0
0 0 0 0 0 0 0 0 0 0 0 0 0 0 0 0 0 0 0 0 0 0 0 0 0 0 0 0 0 0 0 0 0 0 0 0 0 0 0 0 0 0 0 0 0 0 0 0 0
0 0 0 0 0 0 0 0 0 0 0 0 0 0 0 0 0 0 0 0 0 0 0 0 0 0 0 0 0 0 0 0 0 0 0 0 0 0 0 0 0 0 0 0 0 0 0 0 0
0 0 0 0 0 0 0 0 0 0 0 0 0 0 0 0 0 0 0 0 0 0 0 0 0 0 0 0 0 0 0 0 0 0 0 0 0 0 0 0 0 0 0 0 0 0 0 0 0
0 0 0 0 0 0 0 0 0 0 0 0 0 0 0 0 0 0 0 0 0 0 0 0 0 0 0 0 0 0 0 0 0 0 0 0 0 0 0 0 0 0 0 0 0 0 0 0 0
0 0 0 0 0 0 0 0 0 0 0 0 0 0 0 0 0 0 0 0 0 0 0 0 0 0 0 0 0 0 0 0 0 0 0 0 0 0 0 0 0 0 0 0 0 0 0 0 0
0 0 0 0 0 0 0 0 0 0 0 0 0 0 0 0 0 0 0 0 0 0 0 0 0 0 0 -0 -0 0 0 0 0 0 0 0 0 0 0 0 0 0 0 0 0 0 0 0 0
0 0 0 0 0 0 0 0 0 0 0 0 0 0 0 0 0 0 0 0 0 0 0 0 0 0 0 0 0 0 0 0 0 0 0 0 0 0 0 0 0 0 0 0 0 0 0 0 0
0 0 0 0 0 0 0 0 0 0 0 0 0 0 0 0 0 0 0 0 0 0 0 0 0 0 0 0 0 0 0 0 0 0 0 0 0 0 0 0 0 0 0 0 0 0 0 0 0
0 0 0 0 0 0 0 0 0 0 0 0 0 0 0 0 0 0 0 0 0 0 0 0 0 0 0 0 0 0 0 0 0 0 0 0 0 0 0 0 0 0 0 0 0 0 0 0 0
0 0 0 0 0 0 0 0 0 0 0 0 0 0 0 0 0 0 0 0 0 0 0 0 0 0 0 0 0 0 0 0 0 0 0 0 0 0 0 0 0 0 0 0 0 0 0 0 0
0 0 0 0 0 0 0 0 0 0 0 0 0 0 0 0 0 0 0 0 0 0 0 0 0 0 0 0 0 0 0 0 0 0 0 0 0 0 0 0 0 0 0 0 0 0 0 0 0
0 0 0 0 0 0 0 0 0 0 0 0 0 0 0 0 0 0 0 0 0 0 0 0 0 0 0 0 0 0 0 0 0 0 0 0 0 0 0 0 0 0 0 0 0 0 0 0 0
0 0 0 0 0 0 0 0 0 0 0 0 0 0 0 0 0 0 0 0 0 0 0 0 0 0 0 0 0 0 0 0 0 0 0 0 0 0 0 0 0 0 0 0 0 0 0 0 0
0 0 0 0 0 0 0 0 0 0 0 0 0 0 0 0 0 0 0 0 0 0 0 0 0 0 0 0 0 0 0 0 0 0 0 0 0 0 -0 0 0 0 0 0 0 0 0 0 0
0 0 0 0 0 0 0 0 0 0 0 0 0 0 0 0 0 0 0 0 0 0 0 0 0 0 0 0 0 0 0 0 0 0 0 0 0 -0 -0 -0 0 0 0 0 0 0 0 0 0
0 0 0 0 0 0 0 0 0 0 0 0 0 0 0 0 0 0 0 0 0 0 0 0 0 0 0 0 0 0 0 0 0 0 0 0 0 0 -0 -0 0 0 0 0 0 0 0 0 0
0 0 0 0 0 0 0 0 0 0 0 0 0 0 0 0 0 0 0 0 0 0 0 0 0 0 0 0 0 0 0 0 0 0 0 0 0 0 -0 -0 0 0 0 0 0 0 0 0 0
0 0 0 0 0 0 0 0 0 0 0 0 0 0 0 0 0 0 0 0 0 0 0 0 0 0 0 0 0 0 0 0 0 0 0 0 0 0 0 0 0 0 0 0 0 0 0 0 0
0 0 0 0 0 0 0 0 0 0 0 0 0 0 0 0 0 0 0 0 0 0 0 0 0 0 0 0 0 0 0 0 0 0 0 0 0 0 0 -0 0 0 0 0 0 0 0 0 0
0 0 0 0 0 0 0 0 0 0 0 0 0 0 0 0 0 0 0 0 0 0 0 0 0 0 0 0 0 0 0 0 0 0 0 0 0 0 0 0 0 0 0 0 0 0 0 0 0
0 0 0 0 0 0 0 0 0 0 0 0 0 0 0 0 0 0 0 0 0 0 0 0 0 0 0 0 0 0 0 0 0 0 0 0 0 0 0 0 0 0 0 0 0 0 0 0 0
0 0 0 0 0 0 0 0 0 0 0 0 0 0 0 0 0 0 0 0 0 0 0 0 0 0 0 0 0 0 0 0 0 0 0 0 0 0 0 0 0 -0 -0 -0 -0 -0 -0 0 0
0 0 0 0 0 0 0 0 0 0 0 0 0 0 0 0 0 0 0 0 0 0 0 0 0 0 0 0 0 0 0 0 0 0 0 0 0 0 0 0 0 -0 -0 -0 -0 0 -0 0 0
0 0 0 0 0 0 0 0 0 0 0 0 0 0 0 0 0 0 0 0 0 0 0 0 0 0 0 0 0 0 0 0 0 0 0 0 0 0 0 0 0 -0 -0 -0 -0 -0 0 0 0
0 0 0 0 0 0 0 0 0 0 0 0 0 0 0 0 0 0 0 0 0 0 0 0 0 0 0 0 0 0 0 0 0 0 0 0 0 0 0 0 0 0 -0 -0 -0 -0 -0 0 0
0 0 -0 0 0 0 0 0 0 0 0 0 0 0 0 0 0 0 0 0 0 0 0 0 0 0 0 0 0 0 0 0 0 0 0 0 0 0 0 0 0 0 0 -0 -0 -0 -0 0 0
0 0 -0 -0 -0 0 0 0 0 0 0 0 0 0 -0 0 0 0 0 0 0 0 0 0 0 0 0 0 0 0 0 0 0 0 0 0 0 0 0 0 0 0 0 -0 -0 -0 0 0 0
Wind_Speed
8 5 3 2 2 1 1 2 2 2 1 1 5 7 7 5 4 5 2 7 11 8 6 7 9 9 8 7 7 6 6 5 5 5 5 4 4 4 4 4 4 3 3 3 3 3 3 3 3
5 4 2 2 2 1 2 2 3 3 3 4 6 6 7 6 5 5 3 9 11 9 6 7 10 9 8 7 6 6 5 5 4 4 4 3 3 2 2 1 1 2 2 2 2 1 1 1 1
5 3 2 2 1 2 2 2 4 2 1 2 4 5 5 4 5 4 6 11 10 8 6 7 10 9 8 7 6 5 5 4 3 3 2 1 1 0 0 1 1 1 1 1 1 1 1 1 1
3 2 2 2 2 3 3 3 3 0 1 3 5 5 4 3 4 7 11 12 10 8 6 7 11 10 8 7 6 5 4 3 2 1 0 1 1 2 2 3 3 2 2 2 1 1 1 1 2
2 2 2 0 2 2 2 2 2 1 1 4 6 6 3 2 7 11 12 11 10 7 5 6 10 9 8 7 5 4 3 2 1 1 2 2 3 4 4 5 5 5 5 4 3 3 2 2 2
2 2 2 1 2 1 1 1 1 2 4 6 8 6 3 3 7 9 10 9 9 8 6 5 9 9 8 7 5 4 3 1 0 1 3 3 4 5 6 6 6 6 5 5 5 4 4 4 4
3 2 1 1 1 1 1 1 3 3 4 5 8 6 4 4 6 9 10 8 7 7 6 4 4 5 7 7 6 4 3 2 1 2 3 4 5 6 7 7 7 7 6 7 7 7 6 6 6
2 3 1 0 1 2 2 1 3 4 3 5 7 9 7 7 7 8 8 7 7 6 6 5 4 4 3 4 5 4 3 3 2 3 5 6 6 7 7 7 7 8 7 8 7 8 7 7 7
2 4 1 1 1 2 2 1 1 1 4 3 3 5 8 12 9 7 5 4 4 5 5 5 5 4 3 4 4 3 3 3 2 3 6 5 3 4 4 7 8 8 8 8 8 8 8 8 7
3 3 3 3 3 3 3 2 2 2 4 3 4 6 11 11 9 8 6 6 5 5 5 4 5 4 3 3 2 1 1 1 1 1 2 2 2 2 3 4 6 7 8 8 8 8 7 5 2
3 4 3 2 4 3 3 3 2 5 3 7 11 13 13 9 9 9 8 7 7 6 5 4 4 4 3 2 1 1 0 0 1 1 1 1 1 2 2 2 3 4 5 3 4 4 2 2 2
3 4 4 4 6 4 3 2 1 4 7 10 14 16 13 11 10 10 9 7 6 6 5 5 5 4 3 2 1 1 0 0 0 1 0 1 1 2 2 1 2 2 1 2 2 1 2 2 3
3 2 4 4 5 5 3 2 1 3 6 10 12 13 13 12 10 9 9 8 7 6 5 5 6 5 3 2 1 2 1 0 0 1 1 2 1 2 2 2 2 2 2 2 2 2 2 2 2
2 1 2 3 4 3 3 3 2 4 7 11 13 12 12 12 11 8 8 8 8 7 7 6 6 6 5 3 2 1 1 1 2 2 2 3 2 2 2 2 3 2 2 2 1 2 1 2 1
2 2 4 4 4 3 2 2 4 6 9 12 12 12 11 11 10 11 11 10 10 9 7 7 7 6 5 4 3 2 2 2 2 2 2 3 3 3 2 2 2 2 2 3 2 2 1 1 1
3 2 2 4 2 2 4 4 7 5 9 11 10 10 10 10 10 10 11 10 10 9 7 7 7 6 5 4 3 2 2 2 2 2 2 3 3 3 2 2 2 3 2 2 2 1 1 1 1
3 1 2 4 2 2 4 5 7 5 9 10 10 10 10 9 8 9 11 11 11 10 9 7 7 7 5 4 3 2 2 2 1 1 1 2 3 3 2 2 2 3 2 2 2 1 1 1 2
2 2 2 3 3 2 4 7 7 6 9 10 9 9 9 10 10 10 10 10 10 9 8 8 7 6 5 3 3 2 2 1 1 1 1 1 2 3 2 2 2 3 2 3 2 2 2 1 2
3 2 2 4 4 2 6 8 9 7 7 9 9 9 11 11 9 8 9 10 9 8 8 8 7 6 4 3 2 2 1 0 0 0 1 1 1 2 2 2 2 2 2 2 3 2 2 2 1
2 1 2 4 4 3 4 8 9 7 10 10 11 11 12 9 7 8 9 9 10 10 9 8 8 7 5 3 3 2 2 1 1 1 0 0 0 1 1 2 2 2 2 3 3 2 1 2 2
2 3 4 3 4 3 2 8 7 5 5 6 7 8 10 13 13 11 10 10 10 10 10 9 8 7 6 5 3 3 3 2 1 1 1 2 1 0 1 2 1 2 1 1 2 2 2 1 2
3 6 4 2 2 3 1 3 9 5 2 5 6 6 8 10 11 11 11 11 11 10 9 9 9 8 6 6 5 4 3 2 2 2 2 2 1 1 1 1 1 2 1 1 2 1 1 1 1
6 3 1 1 0 3 2 1 8 3 2 5 6 7 8 10 12 13 13 12 10 10 9 9 8 7 6 6 6 5 3 2 2 1 1 1 1 2 1 1 1 1 1 1 2 2 1 1 1
1 4 5 5 4 2 3 2 6 4 5 4 5 6 7 8 10 10 9 8 7 8 8 8 9 7 6 6 6 6 5 4 2 1 1 1 1 2 2 1 0 0 0 1 1 1 1 1 1
4 6 5 6 5 5 4 1 7 6 4 5 6 6 6 7 9 9 10 10 9 10 10 9 10 7 7 7 6 6 6 5 5 3 3 2 1 2 3 1 1 1 1 1 1 1 2 1 2
2 7 6 2 3 5 5 2 6 5 3 2 3 4 5 7 8 10 12 12 11 11 11 10 10 8 8 7 6 5 5 4 3 4 3 3 3 3 3 2 2 2 1 0 1 1 1 1 1
3 2 5 6 0 2 5 4 6 3 2 1 1 3 5 7 8 10 10 11 11 12 12 12 11 9 8 8 6 5 5 5 5 4 3 3 3 3 3 2 2 2 1 0 1 1 1 1 1
4 5 5 4 2 2 6 4 4 5 5 4 4 5 6 6 7 8 10 11 11 12 10 10 11 10 9 8 7 6 6 6 5 4 4 3 4 3 3 2 2 2 1 1 0 0 0 1 1
0 1 4 4 4 4 2 7 6 6 6 6 7 7 7 8 8 9 9 10 10 9 9 10 9 8 8 8 7 6 6 6 5 5 5 4 3 3 3 3 2 2 2 2 1 1 1 0 0
4 4 5 3 2 4 3 9 8 5 5 5 7 6 6 7 7 7 8 8 8 9 9 10 10 9 9 9 7 7 6 6 5 5 5 4 4 4 4 3 3 3 2 2 2 2 1 1 1
Wind_Direction
159 134 102 82 81 70 250 229 206 236 221 44 77 85 86 64 80 126 192 138 133 136 136 133 130 128 127 125 123 120 119 118 117 116 115 113 111 107 105 104 104 100 98 98 96 92 83 76 69
138 126 84 81 100 120 246 220 210 211 167 128 85 82 81 80 88 107 116 131 131 133 131 130 129 126 124 122 118 117 117 116 115 112 109 108 109 115 115 116 113 108 107 109 111 107 104 91 67
145 138 118 101 150 195 217 230 233 255 235 121 78 50 73 102 112 123 139 135 130 132 133 136 131 129 126 124 123 120 115 114 118 116 112 111 112 106 283 266 263 234 172 153 145 155 200 217 244
134 94 74 86 218 225 200 215 234 261 46 96 110 69 51 75 125 133 138 137 135 138 141 143 137 134 133 131 128 125 121 116 115 106 63 298 285 288 285 277 275 265 250 246 240 233 239 247 256
94 99 81 220 243 242 223 217 198 192 133 103 103 91 67 48 112 130 138 141 141 146 150 150 143 141 139 136 132 127 124 115 102 319 305 297 294 294 291 284 279 270 259 254 250 239 249 259 262
89 92 106 199 222 279 269 208 122 117 119 113 105 104 123 138 126 138 141 146 147 150 153 155 154 152 149 145 143 143 144 144 257 307 309 310 303 299 296 289 282 277 269 263 256 251 250 256 262
129 119 157 190 197 227 217 211 156 156 132 138 126 110 142 170 151 145 144 147 150 151 152 159 163 162 163 164 166 166 171 196 265 302 307 306 304 299 292 284 281 278 276 274 266 259 256 255 256
143 104 60 12 165 235 242 206 177 155 130 126 125 138 166 186 161 141 140 145 150 156 162 169 173 174 175 185 189 186 196 222 260 292 299 298 304 304 294 283 277 275 277 278 275 268 262 260 260
93 77 80 209 176 264 261 198 243 83 100 80 109 154 163 161 148 132 130 135 149 160 173 175 176 180 184 197 208 195 208 241 268 296 300 304 311 308 296 281 272 273 280 284 280 276 270 265 263
107 128 211 203 174 209 240 212 183 96 93 81 82 112 141 151 151 154 160 166 169 173 179 177 173 174 183 194 177 212 230 266 282 291 302 312 314 310 320 295 288 285 290 291 286 283 283 276 253
160 173 201 201 188 209 242 250 195 135 153 169 157 155 160 162 164 170 177 179 183 179 167 161 154 157 166 164 163 198 276 273 297 301 297 340 350 339 351 339 322 318 314 310 302 304 299 273 239
181 201 183 199 201 193 218 236 185 176 196 176 166 163 166 171 178 183 183 182 177 165 159 149 141 142 152 146 149 144 147 267 322 306 12 47 20 359 343 342 328 326 317 307 298 294 291 276 254
205 230 214 225 218 212 194 214 201 212 178 160 159 163 173 181 186 189 182 175 166 158 152 145 137 137 132 109 92 108 126 111 92 27 24 53 43 2 350 345 350 339 327 312 303 304 297 289 274
222 244 274 258 245 234 197 236 186 222 163 157 166 176 184 186 184 179 170 168 170 162 153 145 136 135 124 111 99 96 105 89 72 49 37 49 48 23 10 6 359 346 337 325 308 298 291 285 275
2 8 322 273 237 229 163 276 225 209 163 165 178 185 189 191 182 177 174 171 170 164 157 152 141 131 121 110 96 98 93 95 83 65 50 52 52 40 28 16 357 338 341 352 354 337 334 323 309
33 29 322 292 236 203 144 243 250 209 173 180 189 192 193 196 187 180 172 167 164 159 156 156 141 131 126 118 104 95 90 95 95 81 58 50 50 46 34 18 348 338 353 359 350 346 345 329 312
36 24 264 293 268 197 167 233 248 207 186 195 198 199 196 197 191 181 172 166 163 161 155 146 137 138 134 123 102 92 92 100 110 91 67 45 40 40 38 16 340 349 6 2 347 359 341 317 312
177 191 248 258 270 198 219 245 252 217 198 206 206 203 200 197 195 179 169 163 159 158 151 144 139 140 131 106 86 70 66 67 79 96 94 65 41 34 36 14 352 4 12 359 351 334 329 297 299
164 166 218 254 255 216 240 254 255 232 215 216 215 205 204 204 194 171 164 156 151 152 149 149 144 148 135 116 112 109 121 220 354 252 156 93 56 33 36 13 2 9 12 349 348 347 344 333 348
157 165 260 273 257 223 259 269 261 232 220 214 209 206 202 196 180 173 165 159 161 161 158 153 153 155 153 146 151 159 163 192 220 268 304 256 28 7 34 29 8 4 11 6 7 18 11 346 18
216 212 228 246 328 341 339 313 300 274 225 217 210 202 193 187 183 178 171 170 166 166 166 162 162 158 157 145 120 88 62 38 23 345 303 289 265 284 28 24 24 13 28 6 357 12 42 4 348
233 235 222 236 23 306 59 300 300 299 232 211 209 193 192 187 180 177 174 174 175 175 167 158 159 157 158 147 136 137 143 174 224 228 250 275 260 265 317 16 32 24 19 2 343 36 37 72 9
215 226 231 280 110 336 341 180 291 316 226 232 222 203 194 185 181 182 181 180 176 168 163 159 156 158 161 156 149 148 160 192 224 234 255 281 290 283 289 335 48 38 18 3 8 17 26 57 89
164 42 25 40 60 343 264 179 278 259 228 227 229 214 201 188 185 184 179 167 163 160 159 158 157 164 167 161 159 164 173 183 192 214 222 263 276 293 288 277 32 12 341 344 359 8 35 46 64
80 74 28 9 10 272 281 185 258 267 241 197 197 207 198 183 178 174 170 171 170 167 167 166 163 170 176 171 174 180 185 185 193 203 204 201 218 247 257 257 255 256 271 308 30 40 34 52 71
162 132 145 176 247 291 340 324 276 284 256 187 172 179 174 180 183 183 183 180 178 176 173 171 173 176 180 181 187 189 187 184 199 206 197 197 206 219 226 232 242 249 256 348 60 56 32 73 76
130 160 169 140 185 331 319 316 320 326 320 275 193 176 191 193 192 192 189 185 183 181 181 179 178 180 185 187 186 191 192 191 200 206 198 197 210 219 218 222 232 246 245 199 113 75 31 71 67
155 153 91 94 106 326 319 306 259 267 269 270 249 229 223 213 201 196 193 192 191 188 185 181 180 184 187 186 187 191 195 197 196 192 200 202 211 216 210 224 235 232 237 220 169 227 335 66 32
174 97 105 110 145 146 296 284 248 239 246 242 244 237 227 218 210 201 199 197 192 185 182 184 186 185 186 188 190 187 194 197 192 193 202 202 206 210 214 218 213 213 215 213 196 235 210 137 11
172 179 144 140 234 163 177 269 278 265 267 255 257 255 239 224 214 206 199 190 187 189 190 189 189 189 191 189 186 190 194 190 190 198 205 202 207 214 214 202 199 206 205 200 194 217 208 193 193